Weather reports worldwide

Advertisment
Santander/Parayas, Spain (8021): temperature & dewpoint: 16.02.2019 22:00:00 - 22.02.2019 22:00:00 (CET)Santander/Parayas, Spain (8021): wind speed: 16.02.2019 22:00:00 - 22.02.2019 22:00:00 (CET)Santander/Parayas, Spain (8021): wind direction: 16.02.2019 22:00:00 - 22.02.2019 22:00:00 (CET)Santander/Parayas, Spain (8021): reduced air pressure: 16.02.2019 22:00:00 - 22.02.2019 22:00:00 (CET)Santander/Parayas, Spain (8021): visibility: 16.02.2019 22:00:00 - 22.02.2019 22:00:00 (CET)
Date & Time tt [°C] td [°C] ff [km/h] ff [kn] dd ppp [hPa] vv [km]
22.02.2019 22:00:00 8,2 5,4 0 0 N 1027,6 40
22.02.2019 21:00:00 10,9 7,3 4 2 SW 1027,6 -
22.02.2019 20:00:00 12,9 7,5 0 0 N 1027,6 -
22.02.2019 19:00:00 15,4 8,9 13 7 ENE 1027,3 30
22.02.2019 18:00:00 18,1 8,3 15 8 NE 1026,9 -
22.02.2019 17:00:00 18,6 9,6 15 8 NE 1026,9 -
22.02.2019 16:00:00 19,3 9,3 16 9 NE 1027,2 40
22.02.2019 15:00:00 20,2 7,2 16 9 NE 1027,1 -
22.02.2019 14:00:00 23,1 5,8 11 6 ESE 1027,4 -
22.02.2019 13:00:00 19,3 9,7 13 7 NE 1028,3 40
22.02.2019 12:00:00 18,9 7,1 4 2 NE 1029,0 -
22.02.2019 11:00:00 15,8 8,5 0 0 N 1029,5 -
22.02.2019 10:00:00 10,9 9,5 8 4 E 1030,1 40
22.02.2019 09:00:00 4,8 4,8 0 0 N 1029,7 -
22.02.2019 08:00:00 2,8 2,8 0 0 N 1029,4 -
22.02.2019 07:00:00 2,9 2,9 0 0 N 1029,2 18
22.02.2019 06:00:00 2,8 2,8 0 0 N 1029,1 -
22.02.2019 05:00:00 3,3 3,3 2 1 W 1028,8 -
22.02.2019 04:00:00 3,8 3,7 0 0 N 1028,8 -
22.02.2019 03:00:00 4,1 4,0 4 2 E 1028,9 -
22.02.2019 02:00:00 4,8 4,5 0 0 N 1028,9 -
22.02.2019 01:00:00 5,3 5,0 4 2 WNW 1028,9 -
22.02.2019 00:00:00 5,8 5,1 2 1 WSW 1028,5 -
21.02.2019 23:00:00 6,2 5,3 0 0 N 1028,3 -
21.02.2019 22:00:00 7,5 6,4 2 1 S 1027,9 30
21.02.2019 21:00:00 9,0 7,5 2 1 W 1027,3 -
21.02.2019 20:00:00 10,6 7,9 5 3 WNW 1027,1 -
21.02.2019 19:00:00 13,8 9,2 9 5 E 1026,5 30
21.02.2019 18:00:00 15,8 9,7 13 7 NE 1025,7 -
21.02.2019 17:00:00 16,9 7,7 18 10 NE 1025,5 -
21.02.2019 16:00:00 17,3 5,8 16 9 NE 1025,3 40
21.02.2019 15:00:00 17,4 5,5 15 8 NE 1025,4 -
21.02.2019 14:00:00 17,7 6,9 15 8 NE 1025,6 -
21.02.2019 13:00:00 17,8 8,0 9 5 NNE 1025,9 40
21.02.2019 12:00:00 15,3 8,3 8 4 ENE 1026,0 -
21.02.2019 11:00:00 12,6 8,9 0 0 N 1025,9 -
21.02.2019 10:00:00 8,1 8,0 0 0 N 1026,0 20
21.02.2019 09:00:00 2,9 2,9 0 0 N 1025,7 -
21.02.2019 08:00:00 0,6 0,6 2 1 SW 1025,2 -
21.02.2019 07:00:00 1,2 1,2 0 0 N 1024,7 8
21.02.2019 06:00:00 1,1 1,1 0 0 N 1024,7 -
21.02.2019 05:00:00 1,0 1,0 0 0 N 1024,4 -
21.02.2019 04:00:00 2,3 2,3 0 0 N 1024,7 -
21.02.2019 03:00:00 3,2 3,2 0 0 N 1024,7 -
21.02.2019 02:00:00 2,9 2,9 0 0 N 1024,5 -
21.02.2019 01:00:00 3,9 3,9 4 2 ESE 1024,2 -
21.02.2019 00:00:00 5,5 5,5 2 1 SW 1024,0 -
20.02.2019 23:00:00 5,7 5,7 0 0 N 1023,9 -
20.02.2019 22:00:00 7,5 7,4 4 2 SW 1023,7 4,0
20.02.2019 21:00:00 8,9 8,3 0 0 N 1023,6 -
20.02.2019 20:00:00 10,2 9,0 9 5 E 1023,6 -
20.02.2019 19:00:00 12,2 10,4 9 5 NE 1023,2 10
20.02.2019 18:00:00 13,5 10,3 8 4 NE 1023,0 -
20.02.2019 17:00:00 14,0 11,0 9 5 NE 1022,7 -
20.02.2019 16:00:00 14,3 10,4 13 7 NE 1022,3 12
20.02.2019 15:00:00 14,3 9,9 15 8 NE 1022,1 -
20.02.2019 14:00:00 14,6 10,6 13 7 ENE 1022,3 -
20.02.2019 13:00:00 13,7 10,3 13 7 ENE 1022,7 12
20.02.2019 12:00:00 13,1 10,4 4 2 NE 1022,9 -
20.02.2019 11:00:00 11,1 10,6 4 2 E 1022,7 -
20.02.2019 10:00:00 8,0 8,0 5 3 E 1022,4 7
20.02.2019 09:00:00 3,8 3,8 0 0 N 1022,0 -
20.02.2019 08:00:00 2,9 2,9 0 0 N 1021,3 -
20.02.2019 07:00:00 2,7 2,7 4 2 SSW 1020,5 3,0
20.02.2019 06:00:00 2,7 2,7 2 1 W 1020,3 -
20.02.2019 05:00:00 3,2 3,2 4 2 SW 1020,1 -
20.02.2019 04:00:00 3,5 3,5 0 0 N 1020,3 -
20.02.2019 03:00:00 4,6 4,6 4 2 SSW 1020,9 -
20.02.2019 02:00:00 4,9 4,9 0 0 N 1020,9 -
20.02.2019 01:00:00 5,6 5,6 2 1 SSW 1020,8 -
20.02.2019 00:00:00 5,6 5,6 0 0 N 1020,8 -
19.02.2019 23:00:00 6,6 6,6 4 2 SSE 1021,0 -
19.02.2019 22:00:00 7,9 7,9 0 0 N 1020,6 7
19.02.2019 21:00:00 8,5 7,9 4 2 SSE 1020,6 -
19.02.2019 20:00:00 10,5 9,6 11 6 ENE 1020,4 -
19.02.2019 19:00:00 10,8 9,6 18 10 NE 1019,8 30
19.02.2019 18:00:00 11,3 10,0 22 12 NE 1019,4 -
19.02.2019 17:00:00 11,8 9,9 24 13 NE 1019,7 -
19.02.2019 16:00:00 12,2 9,8 21 11 NE 1020,4 40
19.02.2019 15:00:00 11,9 9,5 18 10 NE 1021,0 -
19.02.2019 14:00:00 12,1 9,4 15 8 NE 1021,8 30
19.02.2019 13:00:00 11,8 9,7 9 5 NE 1022,7 20
19.02.2019 12:00:00 10,2 8,8 4 2 E 1023,3 -
19.02.2019 11:00:00 8,9 8,4 5 3 S 1023,5 -
19.02.2019 10:00:00 8,2 8,2 5 3 S 1023,7 15
19.02.2019 09:00:00 7,8 7,7 5 3 SSE 1023,5 -
19.02.2019 08:00:00 7,5 7,2 2 1 SW 1022,9 -
19.02.2019 07:00:00 7,3 7,2 8 4 SSW 1022,8 10
19.02.2019 06:00:00 7,3 7,3 9 5 SW 1022,7 -
19.02.2019 05:00:00 7,3 7,3 8 4 SW 1022,8 -
19.02.2019 04:00:00 7,3 7,3 8 4 SW 1023,2 -
19.02.2019 03:00:00 7,7 7,7 9 5 SW 1023,6 -
19.02.2019 02:00:00 8,2 8,2 9 5 WSW 1023,7 -
19.02.2019 01:00:00 8,5 8,5 11 6 W 1023,6 -
19.02.2019 00:00:00 8,8 8,8 8 4 W 1023,2 -
18.02.2019 23:00:00 9,1 9,1 9 5 WNW 1023,2 -
18.02.2019 22:00:00 9,4 9,4 15 8 WNW 1022,8 4,0
18.02.2019 21:00:00 9,8 9,8 21 11 NW 1021,9 -
18.02.2019 20:00:00 10,3 10,0 21 11 WNW 1021,4 -
18.02.2019 19:00:00 11,8 10,5 9 5 WNW 1020,5 7
18.02.2019 18:00:00 12,4 10,3 11 6 N 1019,7 -
18.02.2019 17:00:00 12,5 10,7 15 8 NW 1019,3 -
18.02.2019 16:00:00 12,8 10,5 13 7 N 1018,7 15
18.02.2019 15:00:00 13,3 11,0 11 6 N 1018,3 -
18.02.2019 14:00:00 14,0 10,8 11 6 NE 1018,3 -
18.02.2019 13:00:00 14,4 10,5 8 4 ENE 1019,0 20
18.02.2019 12:00:00 13,5 10,5 4 2 ENE 1019,4 -
18.02.2019 11:00:00 14,0 10,8 4 2 SE 1019,5 -
18.02.2019 10:00:00 11,3 10,8 0 0 N 1019,6 15
18.02.2019 09:00:00 8,6 8,5 5 3 S 1019,3 -
18.02.2019 08:00:00 9,0 8,7 0 0 N 1018,6 -
18.02.2019 07:00:00 8,3 7,6 5 3 SSW 1018,6 15
18.02.2019 06:00:00 9,5 8,7 0 0 N 1018,3 -
18.02.2019 05:00:00 10,6 9,5 9 5 SW 1017,6 -
18.02.2019 04:00:00 10,9 9,5 13 7 SW 1017,7 -
18.02.2019 03:00:00 11,1 9,6 15 8 WSW 1017,8 -
18.02.2019 02:00:00 10,9 9,2 13 7 WSW 1017,5 -
18.02.2019 01:00:00 10,6 8,7 11 6 WSW 1017,1 -
18.02.2019 00:00:00 6,5 4,7 0 0 N 1017,1 -
17.02.2019 23:00:00 8,3 6,0 2 1 SSE 1017,1 -
17.02.2019 22:00:00 10,8 7,6 5 3 NW 1017,1 25
17.02.2019 21:00:00 12,2 8,1 9 5 WSW 1017,2 -
17.02.2019 20:00:00 13,3 8,8 15 8 W 1017,1 -
17.02.2019 19:00:00 14,0 7,2 4 2 SSE 1016,4 40
17.02.2019 18:00:00 17,2 7,4 8 4 E 1016,3 -
17.02.2019 17:00:00 17,8 7,7 18 10 NE 1016,7 -
17.02.2019 16:00:00 22,0 3,2 15 8 S 1016,8 4,0
17.02.2019 15:00:00 21,9 2,4 21 11 S 1017,5 -
17.02.2019 14:00:00 21,2 3,4 24 13 S 1018,0 -
17.02.2019 13:00:00 20,7 2,7 22 12 S 1019,0 40
17.02.2019 12:00:00 19,5 2,0 28 15 SSW 1019,3 -
17.02.2019 11:00:00 18,3 1,9 28 15 SSW 1019,3 -
17.02.2019 10:00:00 16,6 0,9 29 16 S 1019,6 40
17.02.2019 09:00:00 15,4 0,2 29 16 S 1019,5 -
17.02.2019 08:00:00 14,8 -0,8 24 13 S 1019,2 -
17.02.2019 07:00:00 15,4 -0,9 26 14 SSW 1019,1 30
17.02.2019 06:00:00 15,8 -0,8 18 10 SSW 1018,7 -
17.02.2019 05:00:00 16,3 -0,3 24 13 SSW 1018,3 -
17.02.2019 04:00:00 15,2 0,2 4 2 NNW 1019,0 -
17.02.2019 03:00:00 16,3 -0,4 18 10 SSW 1019,5 -
17.02.2019 02:00:00 16,6 -0,6 24 13 S 1019,6 -
17.02.2019 01:00:00 16,7 -0,2 22 12 SSW 1019,6 -
17.02.2019 00:00:00 17,6 0,3 34 18 SSW 1019,3 -
16.02.2019 23:00:00 18,0 1,0 34 18 SSW 1019,4 -
16.02.2019 22:00:00 17,8 5,0 29 16 S 1019,4 30

tt = temperature
td = dewpoint
ff = wind speed
dd = wind direction
ppp = reduced air pressure
vv = visibility

Next stations